SL-18 R/B

基本信息
目录编号:
26703
目录名称:
SL-18 R/B
国际标识:
2001-007B
轨道中心:
EARTH
物体状态:
在轨
发射日期:
2001-02-20 UTC
国别:
俄罗斯(独联体) (CIS)
轨道信息
数据来源: 国际轨道数据
星历时间: 2026-09-12T16:02:45+0800
半长轴: 6920.29km
偏心率: 0.001036
轨道倾角: 97.683°
近地点辐角: 70.361°
升交点赤经: 273.968°
平近点角: 289.874°
近地点: 534.983km
远地点: 549.323km
周期: 95.487分钟
每日圈数: 15.080521
详细信息
发射场:
SVOB
轨道高度:
LEO
数据来源:
AOE Integration Group
参考系:
TEME
时间系统:
UTC
历元类型:
SGP4
2D轨道图
3D轨道图
轨道高度分析图
轨道倾角分析图
轨道综合分析图
查看轨道综合分析图